Regional Weather Roundup
Issued by NWS

Home | Current Version | Previous Version | Text Only | Print | Product List | Glossary Off
Versions: 1 2 3 4 5 6 7 8 9 10 11 12 13 14 15 16 17 18 19 20 21 22 23 24 25 26 27 28 29 30 31 32 33 34 35 36 37 38 39 40 41 42 43 44 45 46 47 48 49 50

000
ASUS43 KLMK 080410
RWRKY
KENTUCKY REGIONAL WEATHER ROUNDUP
NATIONAL WEATHER SERVICE LOUISVILLE KY
1200 AM EDT WED JUL 08 2015

NOTE "FAIR" INDICATES FEW OR NO CLOUDS BELOW 12,000 FEET
WITH NO SIGNIFICANT WEATHER AND/OR OBSTRUCTIONS TO VISIBILITY.

KYZ001>023-026-027-061>063-070>075-080500-
WESTERN AND SOUTH CENTRAL KENTUCKY

CITY           SKY/WX    TMP DP  RH WIND       PRES   REMARKS
PADUCAH        CLOUDY    72  70  93 SW5       30.03S
HENDERSON      CLOUDY    73  70  88 NW9       30.02R
OWENSBORO      CLOUDY    73  72  94 SW8       30.04R
HOPKINSVILLE   DRIZZLE   72  70  94 SW8       30.08F
BOWLING GREEN  RAIN      73  70  90 SW16      30.11R
GLASGOW        LGT RAIN  70  70 100 SW7       30.10R
$$

KYZ024-025-028>034-038-045-046-053-080500-
NORTH CENTRAL KENTUCKY

CITY           SKY/WX    TMP DP  RH WIND       PRES   REMARKS
LOUISVILLE/SDF CLOUDY    74  73  97 SW7       30.01S
LOUISVILLE/LOU CLOUDY    74  72  93 S3        30.02S
FORT KNOX      CLOUDY    71  69  94 SW7       30.03R
$$

KYZ035>037-039>044-047>052-055>060-089>105-080500-
NORTHEAST KENTUCKY

CITY           SKY/WX    TMP DP  RH WIND       PRES   REMARKS
LEXINGTON      RAIN      70  68  93 S9        30.04S FOG
COVINGTON      DRIZZLE   69  68  96 N8        30.03R FOG
FRANKFORT      LGT RAIN  71  69  93 SW6       30.02R
$$

KYZ054-064>069-076>088-106>120-080500-
SOUTHEAST KENTUCKY

CITY           SKY/WX    TMP DP  RH WIND       PRES   REMARKS
JACKSON        LGT RAIN  70  68  93 CALM      30.08F
LONDON         CLOUDY    74  67  78 SW9       30.12R
SOMERSET       CLOUDY    70  68  94 SW8       30.12R
MIDDLESBORO    HVY RAIN  73  70  89 W7G16     30.15R
MONTICELLO     CLOUDY    72  71  96 CALM      30.13F
$$



USA.gov is the U.S. government's official web portal to all federal, state and local government web resources and services.